This is the latest recevied weather packets stored in our database for station/object KJ6APE. If no packets are shown the sender has not sent any weather packets the latest 10 day(s).
| Time | Temp. | Humidity | Pressure | Rain* | Wind** | Luminosity | Snow |
|---|---|---|---|---|---|---|---|
| 1777920620 | 18.33° C | 51% | 1015.4 hPa | 0 mm | - | 359 W/m² | - |
| 1777920316 | 18.89° C | 51% | 1015.6 hPa | 0 mm | - | 386 W/m² | - |
| 1777920012 | 18.89° C | 50% | 1015.4 hPa | 0 mm | - | 474 W/m² | - |
| 1777919709 | 18.89° C | 50% | 1015.6 hPa | 0 mm | - | 587 W/m² | - |
| 1777919407 | 19.44° C | 48% | 1015.5 hPa | 0 mm | - | 460 W/m² | - |
| 1777919103 | 19.44° C | 48% | 1015.4 hPa | 0 mm | - | 535 W/m² | - |
| 1777918800 | 18.89° C | 50% | 1015.3 hPa | 0 mm | - | 663 W/m² | - |
| 1777918497 | 18.89° C | 51% | 1015.4 hPa | 0 mm | - | 553 W/m² | - |
| 1777918196 | 17.78° C | 52% | 1015.3 hPa | 0 mm | - | 764 W/m² | - |
| 1777917895 | 17.22° C | 54% | 1015.5 hPa | 0 mm | - | 331 W/m² | - |
| 1777917593 | 17.22° C | 53% | 1015.6 hPa | 0 mm | - | 228 W/m² | - |
| 1777917290 | 17.22° C | 52% | 1015.4 hPa | 0 mm | - | 307 W/m² | - |
| 1777916987 | 17.22° C | 54% | 1015.5 hPa | 0 mm | - | 341 W/m² | - |
| 1777916684 | 17.22° C | 56% | 1015.5 hPa | 0 mm | - | 333 W/m² | - |
| 1777916382 | 17.22° C | 55% | 1015.2 hPa | 0 mm | - | 301 W/m² | - |
| 1777916077 | 17.22° C | 55% | 1015.2 hPa | 0 mm | - | 211 W/m² | - |
| 1777915776 | 17.22° C | 56% | 1015.1 hPa | 0 mm | - | 420 W/m² | - |
| 1777915471 | 17.78° C | 54% | 1015.2 hPa | 0 mm | - | 291 W/m² | - |
| 1777915168 | 17.78° C | 54% | 1015.2 hPa | 0 mm | - | 359 W/m² | - |
| 1777914865 | 18.33° C | 53% | 1015.1 hPa | 0 mm | - | 313 W/m² | - |
| 1777914562 | 18.33° C | 57% | 1015 hPa | 0 mm | - | 491 W/m² | - |
| 1777914259 | 17.78° C | 57% | 1015.1 hPa | 0 mm | - | 719 W/m² | - |
| 1777913955 | 17.22° C | 56% | 1015.1 hPa | 0 mm | - | 534 W/m² | - |
| 1777913652 | 17.78° C | 55% | 1015.2 hPa | 0 mm | - | 156 W/m² | - |
| 1777913349 | 18.33° C | 52% | 1015.2 hPa | 0 mm | - | 177 W/m² | - |
* Rain latest hour (hover to see other rain measurements)
** Current wind speed in m/s (hover to see current wind gust speed)